Location: San Vito
(41.8833°N, 12.9833°E)
Time: 07:16:40
(UTC+00:00)

SL-4 R/B - Pass Details

Date: 17 November 2019
Orbit: 428 x 667 km, 51.6° (Epoch: 16 December)

Event Time Altitude Azimuth Distance (km) Brightness Sun altitude
Exits shadow 03:59:48 29° 345° (NNW) 1,223 3.5 -22.2°
Maximum altitude 04:01:10 34° 18° (NNE) 1,095 3.6 -22.0°
Drops below altitude 10° 04:05:34 10° 84° (E) 2,080 6.1 -21.1°
Sets 04:08:05 0° 93° (E) 2,975 7.3 -20.7°
